Regional Weather Roundup
Issued by NWS Cleveland, OH

Home | Current Version | Previous Version | Graphics & Text | Print | Product List | Glossary On
Versions: 1 2 3 4 5 6 7 8 9 10 11 12 13 14 15 16 17 18 19 20 21 22 23 24 25 26 27 28 29 30 31 32 33 34 35 36 37 38 39 40 41 42 43 44 45 46 47 48 49 50
000
ASUS41 KCLE 260312
RWRCLE
OHIO REGIONAL WEATHER ROUNDUP
NATIONAL WEATHER SERVICE WILMINGTON, OH
1100 PM EDT SUN JUN 25 2017

NOTE: "FAIR" INDICATES FEW OR NO CLOUDS BELOW 12,000 FEET WITH NO
SIGNIFICANT WEATHER AND/OR OBSTRUCTIONS TO VISIBILITY.

OHZ001>008-015>018-024>027-034-035-043-044-260400-
   NORTHWEST OHIO

CITY           SKY/WX    TMP DP  RH WIND       PRES   REMARKS
DEFIANCE       CLOUDY    62  51  67 CALM      30.08R
FINDLAY        FAIR      62  50  64 S5        30.08R
TOLEDO EXPRESS MOCLDY    60  47  61 W3        30.07R
TOLEDO EXEC    MOCLDY    62  48  60 W5        30.07R
LIMA           CLOUDY    62  46  55 SW5       30.10R
$$

OHZ009>014-019>023-028>033-038-089-260400-
   NORTHEAST OHIO

CITY           SKY/WX    TMP DP  RH WIND       PRES   REMARKS
CLE-HOPKINS    FAIR      63  46  54 SW8       30.08R
CLE-LAKEFRONT  MOCLDY    67  47  48 SW13      30.04R
CUY CO. ARPT   MOCLDY    66  54  63 SW5       30.06R
LORAIN-ELYRIA  FAIR      59  45  59 W7        30.07S
ASHTABULA      MOCLDY    60  52  74 CALM      30.06S
AKRON-CANTON   FAIR      59  46  62 SW6       30.09R
WOOSTER        FAIR      58  49  72 SW6       30.10R
MANSFIELD      CLOUDY    60  49  66 SW3       30.10R
YOUNGSTOWN     MOCLDY    58  46  64 CALM      30.07R
$$

OHZ042-051>053-060>062-070>072-077>081-260400-
  SOUTHWEST OHIO

CITY           SKY/WX    TMP DP  RH WIND       PRES   REMARKS
CINC-COVINGTON FAIR      64  49  57 W5        30.13R
CINC-LUNKEN    FAIR      62  53  72 CALM      30.13R
HAMILTON       FAIR      58  54  86 CALM      30.13R
DAYTON         MOCLDY    62  50  64 W5        30.13R
WRIGHT-PAT AFB MOCLDY    61  53  74 CALM      30.12R
DAYTON GENERAL FAIR      65  49  56 CALM      30.12R
WILMINGTON     CLOUDY    61  52  72 CALM      30.13R
$$

OHZ036-037-039>041-045>050-054>059-063>069-073>076-082>088-260400-
  CENTRAL AND SOUTHEAST OHIO

CITY           SKY/WX    TMP DP  RH WIND       PRES   REMARKS
COLUMBUS       FAIR      64  48  56 W5        30.11R
OSU AIRPORT    FAIR      60  50  69 CALM      30.12R
BOLTON FIELD   NOT AVBL
RICKENBACK AFB FAIR      63  48  58 CALM      30.11S
NEWARK         FAIR      56  51  84 CALM      30.11R
MARION         FAIR      62  44  51 SW6       30.11R
LANCASTER      FAIR      57  53  86 CALM      30.12S
ZANESVILLE     FAIR      60  50  69 CALM      30.11R
NEW PHILLY     FAIR      58  50  75 CALM      30.11R
$$




USA.gov is the U.S. government's official web portal to all federal, state and local government web resources and services.